Regional Weather Roundup
Issued by NWS

Home | Current Version | Previous Version | Graphics & Text | Print | Product List | Glossary On
Versions: 1 2 3 4 5 6 7 8 9 10 11 12 13 14 15 16 17 18 19 20 21 22 23 24 25 26 27 28 29 30 31 32 33 34 35 36 37 38 39 40 41 42 43 44 45 46 47 48 49 50
597
ASUS45 KBOI 221810
RWRID

IDAHO REGIONAL WEATHER ROUNDUP
NATIONAL WEATHER SERVICE BOISE ID
1100 AM MST THU FEB 22 2018

NOTE: "FAIR" INDICATES FEW OR NO CLOUDS BELOW 12000 FEET
WITH NO SIGNIFICANT WEATHER AND/OR OBSTRUCTIONS TO VISIBILITY

IDZ012-014-221900-
SOUTHWEST IDAHO


CITY           SKY/WX    TMP DP  RH WIND       PRES   REMARKS
BOISE          LGT SNOW  26  21  81 NW8       30.01R WCI  18
CALDWELL       PTSUNNY   30  23  75 W8        30.04R WCI  22
MOUNTAIN HOME  LGT SNOW  27  27 100 NW12      29.97S VSB 3/4 WCI  17
$$

IDZ016-017-221900-
SOUTHCENTRAL IDAHO


CITY           SKY/WX    TMP DP  RH WIND       PRES   REMARKS
BURLEY         CLOUDY    27  14  58 SE5       29.92S WCI  22
JEROME         LGT SNOW  26  21  81 S8        29.94R WCI  18
TWIN FALLS     CLOUDY    26  20  77 S16       29.91S WCI  14
$$

IDZ019>023-221900-
SOUTHEAST IDAHO


CITY           SKY/WX    TMP DP  RH WIND       PRES   REMARKS
IDAHO FALLS    PTSUNNY   24   7  48 CALM      29.98S
POCATELLO      PTSUNNY   27  11  51 E8        29.96S WCI  19
REXBURG        PTSUNNY   24   8  50 CALM      29.97S
$$

IDZ006-010-011-018-031-032-221900-
CENTRAL IDAHO MOUNTAINS


CITY           SKY/WX    TMP DP  RH WIND       PRES   REMARKS
MCCALL         LGT SNOW  19  14  81 W6        29.83R WCI  11
HAILEY         LGT SNOW  21  16  79 E5        29.90S WCI  15
STANLEY          N/A     19  10  68 S9G17     29.79R WCI   8
SALMON         MOSUNNY   30  20  66 CALM      29.96S
CHALLIS        PTSUNNY   27  13  55 N6        29.87S WCI  20
$$

IDZ002-004-006-007-026-221900-
NORTHERN IDAHO


CITY           SKY/WX    TMP DP  RH WIND       PRES   REMARKS
LEWISTON       CLOUDY    27  21  78 W8        30.17R WCI  19
LOWELL           N/A     28  17  63 CALM      30.14S
COEUR D`ALENE  MOSUNNY   23  12  62 N17       30.14R WCI   9
MULLAN PASS    SUNNY     10   6  84 VRB5      29.87R WCI   2
$$




USA.gov is the U.S. government's official web portal to all federal, state and local government web resources and services.